Weatherford, Texas, United States (76085)
Lat: 32.76N, Lon: 97.8W
Wx Zone: TXZ117
Local Info
Past Weather Observations for Yesterday

NOTE: This archive is for the closest National Weather Service station to Weatherford. Information may differ from the station used for current weather conditions.

Click here for Long-term Archive

Time Weather Temperature Dewpoint Humidity Pressure Winds Precip Visibility
23:53
Clear
75°F / 24°C 72°F / 22°C 89% 29.95 in
(1014 mb)
E 4.6 mph
(E 7 kph)
- 10SM
22:53
Clear
75°F / 24°C 72°F / 22°C 89% 29.95 in
(1014 mb)
SE 4.6 mph
(SE 7 kph)
- 10SM
21:53
Clear
75°F / 24°C 72°F / 22°C 89% 29.95 in
(1014 mb)
SSE 5.8 mph
(SSE 9 kph)
- 10SM
20:53
Clear
77°F / 25°C 72°F / 22°C 83% 29.95 in
(1014 mb)
SSE 10.4 mph
(SSE 17 kph)
- 10SM
19:53
Partly Cloudy
79°F / 26°C 72°F / 22°C 79% 29.95 in
(1014 mb)
SE 9.2 mph
(SE 15 kph)
0.04 in
(1.02 mm)
10SM
18:53
Clear
79°F / 26°C 73°F / 23°C 84% 29.92 in
(1013 mb)
SE 9.2 mph
(SE 15 kph)
0.26 in
(6.60 mm)
10SM
17:53
Mostly Cloudy
Light Rain
79°F / 26°C 75°F / 24°C 89% 29.89 in
(1012 mb)
Calm 0.42 in
(10.67 mm)
10SM
17:30
Overcast
Thunder Storms
77°F / 25°C 73°F / 23°C 89% 29.89 in
(1012 mb)
SSW 6.9 mph
(SSW 11 kph)
0.26 in
(6.60 mm)
2SM
17:15
Mostly Cloudy
Thunder Storms
79°F / 26°C 72°F / 22°C 79% 29.92 in
(1013 mb)
Calm 0.15 in
(3.81 mm)
1SM
17:03
Overcast
Thunder Storms
79°F / 26°C 72°F / 22°C 79% 29.92 in
(1013 mb)
NNW 15 mph
(NNW 24 kph)
0.07 in
(1.78 mm)
3/4SM
16:57
Overcast
Thunder Storms
79°F / 26°C 72°F / 22°C 79% 29.92 in
(1013 mb)
NW 18.4 mph
(NW 30 kph)
0.02 in
(0.51 mm)
1 3/4SM
16:53
Mostly Cloudy
Thunder Storms
79°F / 26°C 73°F / 23°C 84% 29.92 in
(1013 mb)
W 18.4 mph
(W 30 kph)
0.03 in
(0.76 mm)
4SM
16:34
Partly Cloudy
Thunder Storms
91°F / 33°C 70°F / 21°C 49% 29.92 in
(1013 mb)
S 5.8 mph
(S 9 kph)
- 10SM
16:20
Partly Cloudy
Thunder Storms
91°F / 33°C 70°F / 21°C 49% 29.89 in
(1012 mb)
SE 6.9 mph
(SE 11 kph)
- 10SM
16:05
Partly Cloudy
Thunder Storms
91°F / 33°C 70°F / 21°C 49% 29.92 in
(1013 mb)
SE 11.5 mph
(SE 19 kph)
- 10SM
15:53
Mostly Cloudy
Thunder Storms
95°F / 35°C 68°F / 20°C 41% 29.89 in
(1012 mb)
ESE 10.4 mph
(ESE 17 kph)
- 10SM
14:53
Mostly Cloudy
95°F / 35°C 70°F / 21°C 44% 29.92 in
(1013 mb)
Variable 3.5 mph
(Variable 6 kph)
- 10SM
13:53
Mostly Cloudy
93°F / 34°C 70°F / 21°C 47% 29.95 in
(1014 mb)
Calm - 10SM
12:53
Partly Cloudy
93°F / 34°C 70°F / 21°C 47% 29.95 in
(1014 mb)
Variable 3.5 mph
(Variable 6 kph)
- 10SM
11:53
Clear
93°F / 34°C 72°F / 22°C 49% 29.98 in
(1015 mb)
Calm - 10SM
10:53
Clear
90°F / 32°C 72°F / 22°C 55% 30.01 in
(1016 mb)
Variable 4.6 mph
(Variable 7 kph)
- 10SM
09:53
Partly Cloudy
86°F / 30°C 72°F / 22°C 62% 30.01 in
(1016 mb)
SSW 5.8 mph
(SSW 9 kph)
- 10SM
08:53
Mostly Cloudy
82°F / 28°C 72°F / 22°C 70% 30.01 in
(1016 mb)
SW 9.2 mph
(SW 15 kph)
- 10SM
07:53
Mostly Cloudy
77°F / 25°C 72°F / 22°C 83% 30.01 in
(1016 mb)
S 3.5 mph
(S 6 kph)
- 10SM
06:53
Clear
73°F / 23°C 72°F / 22°C 94% 30.01 in
(1016 mb)
SE 4.6 mph
(SE 7 kph)
- 10SM
05:53
Clear
72°F / 22°C 70°F / 21°C 94% 29.98 in
(1015 mb)
SE 3.5 mph
(SE 6 kph)
- 10SM
04:53
Clear
72°F / 22°C 70°F / 21°C 94% 29.98 in
(1015 mb)
E 3.5 mph
(E 6 kph)
- 10SM
03:53
Clear
72°F / 22°C 72°F / 22°C 100% 29.95 in
(1014 mb)
SSE 5.8 mph
(SSE 9 kph)
- 10SM
02:53
Clear
72°F / 22°C 72°F / 22°C 100% 29.95 in
(1014 mb)
SSE 8.1 mph
(SSE 13 kph)
- 10SM
01:53
Clear
72°F / 22°C 70°F / 21°C 94% 29.95 in
(1014 mb)
S 3.5 mph
(S 6 kph)
- 10SM
00:53
Clear
73°F / 23°C 72°F / 22°C 94% 29.95 in
(1014 mb)
SSE 5.8 mph
(SSE 9 kph)
- 10SM
Time Weather Temperature Dewpoint Humidity Pressure Winds Precip Visibility


Weather for websites

WeatherForYou.com, LLC is not responsible for any damages or problems caused by this service. Current weather conditions are obtained from the closest station including government and personal stations which may have varying degrees of accuracy. Weather forecasts are derived from the NOAA NDFD. Like all things, this site belongs to Jesus Christ... He just trusts us to maintain it. If you have any questions or comments email webmaster@weatherforyou.com

Copyright © 2016, WeatherForYou.com LLC. All rights reserved.